Time,TemperatureF,DewpointF,PressureIn,WindDirection,WindDirectionDegrees,WindSpeedMPH,WindSpeedGustMPH,Humidity,HourlyPrecipIn,Conditions,Clouds,dailyrainin,SoftwareType,DateUTC
2014-03-02 00:01:00,27.9,23.0,30.16,SE,135,0.0,0.0,82,0.00,,,0.00,meteobridge,2014-03-02 05:01:00,
2014-03-02 00:02:00,27.9,23.0,30.16,SE,135,0.0,0.0,82,0.00,,,0.00,meteobridge,2014-03-02 05:02:00,
2014-03-02 00:05:00,28.2,23.4,30.16,North,0,0.0,0.0,82,0.00,,,0.00,meteobridge,2014-03-02 05:05:00,
2014-03-02 00:10:00,27.7,22.8,30.16,North,0,0.0,0.0,82,0.00,,,0.00,meteobridge,2014-03-02 05:10:00,
2014-03-02 00:16:00,27.5,22.8,30.15,North,0,0.0,0.0,82,0.00,,,0.00,meteobridge,2014-03-02 05:16:00,
2014-03-02 00:21:00,27.1,22.6,30.16,North,0,0.0,0.0,83,0.00,,,0.00,meteobridge,2014-03-02 05:21:00,
2014-03-02 00:26:00,27.0,22.5,30.15,North,0,0.0,0.0,83,0.00,,,0.00,meteobridge,2014-03-02 05:26:00,
2014-03-02 00:31:00,26.8,22.3,30.15,North,0,0.0,0.0,83,0.00,,,0.00,meteobridge,2014-03-02 05:31:00,
2014-03-02 00:36:00,26.8,22.3,30.15,North,0,0.0,0.0,83,0.00,,,0.00,meteobridge,2014-03-02 05:36:00,
2014-03-02 00:41:00,26.8,22.3,30.15,North,0,0.0,0.0,83,0.00,,,0.00,meteobridge,2014-03-02 05:41:00,
2014-03-02 00:47:00,26.6,22.1,30.15,North,0,0.0,0.0,83,0.00,,,0.00,meteobridge,2014-03-02 05:47:00,
2014-03-02 00:52:00,26.8,22.6,30.15,North,0,0.0,0.0,84,0.00,,,0.00,meteobridge,2014-03-02 05:52:00,
2014-03-02 00:57:00,26.6,22.5,30.14,North,0,0.0,0.0,84,0.00,,,0.00,meteobridge,2014-03-02 05:57:00,
2014-03-02 01:02:00,26.4,22.5,30.14,North,0,0.0,0.0,85,0.00,,,0.00,meteobridge,2014-03-02 06:02:00,
2014-03-02 01:07:00,26.4,22.5,30.13,South,180,0.0,0.0,85,0.00,,,0.00,meteobridge,2014-03-02 06:07:00,
2014-03-02 01:12:00,26.2,22.3,30.12,South,180,0.0,0.0,85,0.00,,,0.00,meteobridge,2014-03-02 06:12:00,
2014-03-02 01:18:00,26.2,22.3,30.13,South,180,0.0,0.0,85,0.00,,,0.00,meteobridge,2014-03-02 06:18:00,
2014-03-02 01:23:00,26.6,22.5,30.13,South,180,0.0,0.0,84,0.00,,,0.00,meteobridge,2014-03-02 06:23:00,
2014-03-02 01:28:00,27.1,23.2,30.13,South,180,0.0,0.0,85,0.00,,,0.00,meteobridge,2014-03-02 06:28:00,
2014-03-02 01:33:00,27.1,23.2,30.13,South,180,0.0,0.0,85,0.00,,,0.00,meteobridge,2014-03-02 06:33:00,
2014-03-02 01:38:00,27.9,24.3,30.12,SE,135,0.0,0.0,86,0.00,,,0.00,meteobridge,2014-03-02 06:38:00,
2014-03-02 01:43:00,28.2,24.6,30.12,SE,135,0.0,0.0,86,0.00,,,0.00,meteobridge,2014-03-02 06:43:00,
2014-03-02 01:49:00,28.4,26.1,30.12,SE,135,0.0,0.0,91,0.00,,,0.00,meteobridge,2014-03-02 06:49:00,
2014-03-02 01:54:00,28.6,26.2,30.12,SE,135,0.0,0.0,91,0.00,,,0.00,meteobridge,2014-03-02 06:54:00,
2014-03-02 01:59:00,29.8,27.9,30.12,North,0,0.0,0.0,92,0.00,,,0.00,meteobridge,2014-03-02 06:59:00,
2014-03-02 02:04:00,29.7,27.7,30.12,North,0,0.0,0.0,92,0.00,,,0.00,meteobridge,2014-03-02 07:04:00,
2014-03-02 02:09:00,29.8,28.0,30.12,North,0,0.0,0.0,93,0.00,,,0.00,meteobridge,2014-03-02 07:09:00,
2014-03-02 02:14:00,29.5,27.7,30.13,North,0,0.0,0.0,93,0.00,,,0.00,meteobridge,2014-03-02 07:14:00,
2014-03-02 02:20:00,30.6,28.8,30.12,North,0,0.0,0.0,93,0.00,,,0.00,meteobridge,2014-03-02 07:20:00,
2014-03-02 02:25:00,30.2,28.4,30.12,North,0,0.0,0.0,93,0.00,,,0.00,meteobridge,2014-03-02 07:25:00,
2014-03-02 02:30:00,30.2,28.4,30.11,SE,135,0.0,0.0,93,0.00,,,0.00,meteobridge,2014-03-02 07:30:00,
2014-03-02 02:35:00,30.6,29.1,30.11,South,180,0.0,0.0,94,0.00,,,0.00,meteobridge,2014-03-02 07:35:00,
2014-03-02 02:40:00,30.7,29.3,30.11,North,0,0.0,0.0,94,0.00,,,0.00,meteobridge,2014-03-02 07:40:00,
2014-03-02 02:45:00,31.1,29.7,30.11,North,0,0.0,0.0,94,0.00,,,0.00,meteobridge,2014-03-02 07:45:00,
2014-03-02 02:51:00,30.9,29.5,30.10,North,0,0.0,0.0,94,0.00,,,0.00,meteobridge,2014-03-02 07:51:00,
2014-03-02 02:56:00,31.1,29.7,30.10,East,90,0.0,0.0,94,0.00,,,0.00,meteobridge,2014-03-02 07:56:00,
2014-03-02 03:01:00,30.7,29.5,30.10,East,90,0.0,0.0,95,0.00,,,0.00,meteobridge,2014-03-02 08:01:00,
2014-03-02 03:06:00,30.7,29.5,30.10,East,90,0.0,0.0,95,0.00,,,0.00,meteobridge,2014-03-02 08:06:00,
2014-03-02 03:11:00,30.9,29.7,30.10,SE,135,0.0,0.0,95,0.00,,,0.00,meteobridge,2014-03-02 08:11:00,
2014-03-02 03:16:00,31.1,29.8,30.09,South,180,0.0,0.0,95,0.00,,,0.00,meteobridge,2014-03-02 08:16:00,
2014-03-02 03:22:00,31.3,30.0,30.09,South,180,0.0,0.0,95,0.00,,,0.00,meteobridge,2014-03-02 08:22:00,
2014-03-02 03:27:00,31.1,29.8,30.09,South,180,0.0,0.0,95,0.00,,,0.00,meteobridge,2014-03-02 08:27:00,
2014-03-02 03:32:00,31.3,30.0,30.09,SE,135,0.0,0.0,95,0.00,,,0.00,meteobridge,2014-03-02 08:32:00,
2014-03-02 03:37:00,31.8,30.7,30.10,North,0,0.0,0.0,96,0.00,,,0.00,meteobridge,2014-03-02 08:37:00,
2014-03-02 03:42:00,31.6,30.6,30.10,North,0,0.0,0.0,96,0.00,,,0.00,meteobridge,2014-03-02 08:42:00,
2014-03-02 03:47:00,31.3,30.2,30.10,North,0,0.0,0.0,96,0.00,,,0.00,meteobridge,2014-03-02 08:47:00,
2014-03-02 03:53:00,31.5,30.4,30.11,North,0,0.0,0.0,96,0.00,,,0.00,meteobridge,2014-03-02 08:53:00,
2014-03-02 03:58:00,31.6,30.6,30.10,South,180,0.0,0.0,96,0.00,,,0.00,meteobridge,2014-03-02 08:58:00,
2014-03-02 04:03:00,32.0,30.7,30.10,South,180,0.0,0.0,95,0.00,,,0.00,meteobridge,2014-03-02 09:03:00,
2014-03-02 04:08:00,32.2,30.9,30.10,NE,45,0.0,0.0,95,0.00,,,0.00,meteobridge,2014-03-02 09:08:00,
2014-03-02 04:13:00,32.2,30.9,30.10,NW,315,0.0,0.0,95,0.00,,,0.00,meteobridge,2014-03-02 09:13:00,
2014-03-02 04:18:00,32.4,31.1,30.10,SE,135,0.0,0.0,95,0.00,,,0.00,meteobridge,2014-03-02 09:18:00,
2014-03-02 04:24:00,32.7,31.5,30.09,East,90,0.0,0.0,95,0.00,,,0.00,meteobridge,2014-03-02 09:24:00,
2014-03-02 04:29:00,33.1,31.5,30.10,South,180,0.0,0.0,94,0.00,,,0.00,meteobridge,2014-03-02 09:29:00,
2014-03-02 04:34:00,33.3,31.6,30.10,SE,135,0.0,0.0,94,0.00,,,0.00,meteobridge,2014-03-02 09:34:00,
2014-03-02 04:39:00,33.6,31.8,30.09,SE,135,0.0,0.0,93,0.00,,,0.00,meteobridge,2014-03-02 09:39:00,
2014-03-02 04:44:00,33.6,31.3,30.09,East,90,0.0,0.0,91,0.00,,,0.00,meteobridge,2014-03-02 09:44:00,
2014-03-02 04:50:00,33.8,30.6,30.10,SE,135,0.0,0.0,88,0.00,,,0.00,meteobridge,2014-03-02 09:50:00,
2014-03-02 04:55:00,34.2,30.4,30.10,East,90,1.6,1.6,86,0.00,,,0.00,meteobridge,2014-03-02 09:55:00,
2014-03-02 05:00:00,34.2,29.8,30.09,SE,135,0.0,2.2,84,0.00,,,0.00,meteobridge,2014-03-02 10:00:00,
2014-03-02 05:05:00,34.3,29.7,30.07,SE,135,0.0,0.0,83,0.00,,,0.00,meteobridge,2014-03-02 10:05:00,
2014-03-02 05:10:00,34.3,29.5,30.08,SE,135,2.2,3.1,82,0.00,,,0.00,meteobridge,2014-03-02 10:10:00,
2014-03-02 05:15:00,34.5,28.9,30.08,East,90,1.6,2.2,80,0.00,,,0.00,meteobridge,2014-03-02 10:15:00,
2014-03-02 05:21:00,34.5,28.8,30.09,South,180,0.0,0.0,79,0.00,,,0.00,meteobridge,2014-03-02 10:21:00,
2014-03-02 05:26:00,34.3,28.2,30.09,South,180,1.6,1.6,78,0.00,,,0.00,meteobridge,2014-03-02 10:26:00,
2014-03-02 05:31:00,34.7,28.6,30.09,East,90,2.2,2.2,78,0.00,,,0.00,meteobridge,2014-03-02 10:31:00,
2014-03-02 05:36:00,34.9,28.4,30.09,SW,225,0.0,0.7,77,0.00,,,0.00,meteobridge,2014-03-02 10:36:00,
2014-03-02 05:41:00,34.7,28.2,30.08,South,180,0.0,0.0,77,0.00,,,0.00,meteobridge,2014-03-02 10:41:00,
2014-03-02 05:46:00,34.7,28.2,30.09,North,0,0.0,0.0,77,0.00,,,0.00,meteobridge,2014-03-02 10:46:00,
2014-03-02 05:52:00,34.7,28.2,30.09,North,0,0.0,0.0,77,0.00,,,0.00,meteobridge,2014-03-02 10:52:00,
2014-03-02 05:57:00,34.7,28.6,30.09,South,180,0.0,0.7,78,0.00,,,0.00,meteobridge,2014-03-02 10:57:00,
2014-03-02 06:02:00,34.7,28.6,30.09,North,0,0.0,1.6,78,0.00,,,0.00,meteobridge,2014-03-02 11:02:00,
2014-03-02 06:07:00,34.7,28.6,30.07,SE,135,0.0,1.6,78,0.00,,,0.00,meteobridge,2014-03-02 11:07:00,
2014-03-02 06:12:00,34.7,28.9,30.07,NE,45,0.7,0.7,79,0.00,,,0.00,meteobridge,2014-03-02 11:12:00,
2014-03-02 06:17:00,34.9,29.3,30.08,SE,135,1.6,2.2,80,0.00,,,0.00,meteobridge,2014-03-02 11:17:00,
2014-03-02 06:23:00,34.9,29.3,30.08,North,0,0.0,0.0,80,0.00,,,0.00,meteobridge,2014-03-02 11:23:00,
2014-03-02 06:28:00,34.9,29.7,30.08,North,0,2.2,2.2,81,0.00,,,0.00,meteobridge,2014-03-02 11:28:00,
2014-03-02 06:33:00,34.9,29.7,30.07,SE,135,0.0,0.0,81,0.00,,,0.00,meteobridge,2014-03-02 11:33:00,
2014-03-02 06:38:00,35.1,30.2,30.06,SE,135,0.0,0.0,82,0.00,,,0.00,meteobridge,2014-03-02 11:38:00,
2014-03-02 06:43:00,35.2,30.4,30.07,East,90,0.0,0.0,82,0.00,,,0.00,meteobridge,2014-03-02 11:43:00,
2014-03-02 06:48:00,35.2,30.4,30.07,East,90,0.0,0.0,82,0.00,,,0.00,meteobridge,2014-03-02 11:48:00,
2014-03-02 06:54:00,35.4,30.6,30.06,SE,135,0.0,0.0,82,0.00,,,0.00,meteobridge,2014-03-02 11:54:00,
2014-03-02 06:59:00,35.6,30.4,30.07,North,0,0.0,0.0,81,0.00,,,0.00,meteobridge,2014-03-02 11:59:00,
2014-03-02 07:04:00,35.6,30.4,30.07,North,0,1.6,1.6,81,0.00,,,0.00,meteobridge,2014-03-02 12:04:00,
2014-03-02 07:09:00,35.6,30.4,30.07,East,90,0.0,2.2,81,0.00,,,0.00,meteobridge,2014-03-02 12:09:00,
2014-03-02 07:14:00,35.6,30.4,30.08,North,0,1.6,1.6,81,0.00,,,0.00,meteobridge,2014-03-02 12:14:00,
2014-03-02 07:19:00,35.6,30.4,30.08,North,0,2.2,2.2,81,0.00,,,0.00,meteobridge,2014-03-02 12:19:00,
2014-03-02 07:25:00,35.8,30.6,30.08,SE,135,0.0,0.7,81,0.00,,,0.00,meteobridge,2014-03-02 12:25:00,
2014-03-02 07:30:00,35.8,30.6,30.08,NE,45,0.0,0.0,81,0.00,,,0.00,meteobridge,2014-03-02 12:30:00,
2014-03-02 07:35:00,35.8,30.6,30.08,East,90,0.7,1.6,81,0.00,,,0.00,meteobridge,2014-03-02 12:35:00,
2014-03-02 07:40:00,36.0,30.9,30.09,SE,135,0.0,2.2,82,0.00,,,0.00,meteobridge,2014-03-02 12:40:00,
2014-03-02 07:45:00,36.0,30.9,30.09,East,90,0.0,1.6,82,0.00,,,0.00,meteobridge,2014-03-02 12:45:00,
2014-03-02 07:50:00,36.0,30.9,30.09,South,180,0.0,1.6,82,0.00,,,0.00,meteobridge,2014-03-02 12:50:00,
2014-03-02 07:56:00,36.1,31.1,30.09,South,180,1.6,1.6,82,0.00,,,0.00,meteobridge,2014-03-02 12:56:00,
2014-03-02 08:01:00,36.1,30.9,30.09,SE,135,0.0,0.0,81,0.00,,,0.00,meteobridge,2014-03-02 13:01:00,
2014-03-02 08:06:00,36.3,31.1,30.08,North,0,0.0,0.0,81,0.00,,,0.00,meteobridge,2014-03-02 13:06:00,
2014-03-02 08:11:00,36.7,31.5,30.08,SE,135,0.0,0.0,81,0.00,,,0.00,meteobridge,2014-03-02 13:11:00,
2014-03-02 08:16:00,36.7,31.5,30.09,North,0,0.7,0.7,81,0.00,,,0.00,meteobridge,2014-03-02 13:16:00,
2014-03-02 08:21:00,36.7,31.1,30.09,SE,135,0.0,0.0,80,0.00,,,0.00,meteobridge,2014-03-02 13:21:00,
2014-03-02 08:27:00,36.7,30.7,30.09,North,0,0.0,0.7,79,0.00,,,0.00,meteobridge,2014-03-02 13:27:00,
2014-03-02 08:32:00,36.9,30.6,30.09,NE,45,0.0,0.0,78,0.00,,,0.00,meteobridge,2014-03-02 13:32:00,
2014-03-02 08:37:00,36.9,30.4,30.09,North,0,0.0,0.7,77,0.00,,,0.00,meteobridge,2014-03-02 13:37:00,
2014-03-02 08:42:00,36.9,30.4,30.09,East,90,2.2,2.2,77,0.00,,,0.00,meteobridge,2014-03-02 13:42:00,
2014-03-02 08:47:00,37.0,30.2,30.09,NE,45,0.0,0.0,76,0.00,,,0.00,meteobridge,2014-03-02 13:47:00,
2014-03-02 08:52:00,37.0,30.2,30.09,SE,135,0.0,0.0,76,0.00,,,0.00,meteobridge,2014-03-02 13:52:00,
2014-03-02 08:58:00,37.0,30.2,30.09,East,90,0.0,1.6,76,0.00,,,0.00,meteobridge,2014-03-02 13:58:00,
2014-03-02 09:03:00,37.0,30.2,30.09,SE,135,0.0,0.0,76,0.00,,,0.00,meteobridge,2014-03-02 14:03:00,
2014-03-02 09:08:00,37.0,30.2,30.09,East,90,0.0,0.0,76,0.00,,,0.00,meteobridge,2014-03-02 14:08:00,
2014-03-02 09:13:00,36.9,29.7,30.08,East,90,0.0,0.0,75,0.00,,,0.00,meteobridge,2014-03-02 14:13:00,
2014-03-02 09:18:00,37.0,29.8,30.09,North,0,0.0,0.0,75,0.00,,,0.00,meteobridge,2014-03-02 14:18:00,
2014-03-02 09:23:00,37.0,29.8,30.09,East,90,0.0,0.0,75,0.00,,,0.00,meteobridge,2014-03-02 14:23:00,
2014-03-02 09:29:00,37.2,30.0,30.09,NE,45,0.0,0.0,75,0.00,,,0.00,meteobridge,2014-03-02 14:29:00,
2014-03-02 09:34:00,37.2,30.0,30.08,North,0,0.0,0.0,75,0.00,,,0.00,meteobridge,2014-03-02 14:34:00,
2014-03-02 09:39:00,37.2,30.0,30.08,North,0,0.0,0.0,75,0.00,,,0.00,meteobridge,2014-03-02 14:39:00,
2014-03-02 09:44:00,37.4,31.5,30.08,North,0,0.0,0.0,79,0.00,,,0.00,meteobridge,2014-03-02 14:44:00,
2014-03-02 09:49:00,37.6,31.6,30.08,North,0,0.0,0.0,79,0.00,,,0.00,meteobridge,2014-03-02 14:49:00,
2014-03-02 09:54:00,37.8,31.5,30.08,SE,135,1.6,1.6,78,0.00,,,0.00,meteobridge,2014-03-02 14:54:00,
2014-03-02 10:00:00,37.8,31.5,30.08,North,0,0.0,0.0,78,0.00,,,0.00,meteobridge,2014-03-02 15:00:00,
2014-03-02 10:05:00,37.8,31.3,30.08,South,180,0.0,0.7,77,0.00,,,0.00,meteobridge,2014-03-02 15:05:00,
2014-03-02 10:10:00,37.8,31.3,30.08,SE,135,0.7,1.6,77,0.00,,,0.00,meteobridge,2014-03-02 15:10:00,
2014-03-02 10:15:00,37.8,31.3,30.07,East,90,1.6,1.6,77,0.00,,,0.00,meteobridge,2014-03-02 15:15:00,
2014-03-02 10:20:00,37.9,31.5,30.08,SE,135,0.0,0.0,77,0.00,,,0.00,meteobridge,2014-03-02 15:20:00,
2014-03-02 10:24:00,37.9,31.6,30.08,North,0,0.0,0.7,78,0.00,,,0.00,meteobridge,2014-03-02 15:24:00,
2014-03-02 10:29:00,37.6,31.3,30.08,NE,45,0.0,1.6,78,0.00,,,0.00,meteobridge,2014-03-02 15:29:00,
2014-03-02 10:34:00,37.8,31.5,30.08,East,90,1.6,1.6,78,0.00,,,0.00,meteobridge,2014-03-02 15:34:00,
2014-03-02 10:39:00,37.6,31.3,30.08,North,0,1.6,2.2,78,0.00,,,0.00,meteobridge,2014-03-02 15:39:00,
2014-03-02 10:44:00,37.9,31.5,30.08,SE,135,0.0,1.6,77,0.00,,,0.00,meteobridge,2014-03-02 15:44:00,
2014-03-02 10:49:00,38.3,31.6,30.08,NE,45,0.0,1.6,77,0.00,,,0.00,meteobridge,2014-03-02 15:49:00,
2014-03-02 10:55:00,38.8,32.0,30.06,North,0,3.1,3.1,76,0.00,,,0.00,meteobridge,2014-03-02 15:55:00,
2014-03-02 11:00:00,39.4,31.8,30.07,SE,135,0.0,0.0,74,0.00,,,0.00,meteobridge,2014-03-02 16:00:00,
2014-03-02 11:05:00,39.7,32.2,30.07,SE,135,1.6,2.2,74,0.00,,,0.00,meteobridge,2014-03-02 16:05:00,
2014-03-02 11:10:00,39.6,31.6,30.07,SE,135,2.2,2.2,73,0.00,,,0.00,meteobridge,2014-03-02 16:10:00,
2014-03-02 11:15:00,38.8,30.9,30.07,NE,45,2.2,2.2,73,0.00,,,0.00,meteobridge,2014-03-02 16:15:00,
2014-03-02 11:20:00,39.0,31.1,30.06,NE,45,1.6,1.6,73,0.00,,,0.00,meteobridge,2014-03-02 16:20:00,
2014-03-02 11:26:00,39.6,31.3,30.06,North,0,0.0,1.6,72,0.00,,,0.00,meteobridge,2014-03-02 16:26:00,
2014-03-02 11:31:00,39.9,31.6,30.06,SE,135,0.0,0.7,72,0.00,,,0.00,meteobridge,2014-03-02 16:31:00,
2014-03-02 11:36:00,40.5,32.2,30.05,East,90,0.0,2.2,72,0.00,,,0.00,meteobridge,2014-03-02 16:36:00,
2014-03-02 11:41:00,40.8,32.5,30.05,North,0,1.6,2.2,72,0.00,,,0.00,meteobridge,2014-03-02 16:41:00,
2014-03-02 11:46:00,40.3,32.4,30.05,NE,45,2.2,3.8,73,0.00,,,0.00,meteobridge,2014-03-02 16:46:00,
2014-03-02 11:51:00,41.2,33.3,30.04,North,0,3.1,3.1,73,0.00,,,0.00,meteobridge,2014-03-02 16:51:00,
2014-03-02 11:57:00,41.7,33.6,30.04,NE,45,2.2,3.1,73,0.00,,,0.00,meteobridge,2014-03-02 16:57:00,
2014-03-02 12:02:00,41.4,32.7,30.04,North,0,2.2,2.2,71,0.00,,,0.00,meteobridge,2014-03-02 17:02:00,
2014-03-02 12:07:00,41.5,32.5,30.04,North,0,3.1,3.1,70,0.00,,,0.00,meteobridge,2014-03-02 17:07:00,
2014-03-02 12:12:00,41.7,33.1,30.04,NW,315,2.2,2.2,71,0.00,,,0.00,meteobridge,2014-03-02 17:12:00,
2014-03-02 12:17:00,41.4,32.4,30.03,North,0,1.6,3.8,70,0.00,,,0.00,meteobridge,2014-03-02 17:17:00,
2014-03-02 12:22:00,41.9,32.9,30.02,North,0,2.2,2.2,70,0.00,,,0.00,meteobridge,2014-03-02 17:22:00,
2014-03-02 12:28:00,42.4,33.4,30.02,North,0,0.0,1.6,70,0.00,,,0.00,meteobridge,2014-03-02 17:28:00,
2014-03-02 12:33:00,42.4,32.7,30.02,North,0,2.2,3.1,68,0.00,,,0.00,meteobridge,2014-03-02 17:33:00,
2014-03-02 12:38:00,41.9,31.5,30.02,North,0,2.2,3.1,66,0.00,,,0.00,meteobridge,2014-03-02 17:38:00,
2014-03-02 12:43:00,43.0,32.0,30.01,North,0,3.1,3.1,65,0.00,,,0.00,meteobridge,2014-03-02 17:43:00,
2014-03-02 12:48:00,42.6,31.6,30.01,North,0,2.2,3.1,65,0.00,,,0.00,meteobridge,2014-03-02 17:48:00,
2014-03-02 12:54:00,43.9,32.5,30.00,NE,45,0.0,3.8,64,0.00,,,0.00,meteobridge,2014-03-02 17:54:00,
2014-03-02 12:59:00,43.2,31.5,30.00,North,0,2.2,3.8,63,0.00,,,0.00,meteobridge,2014-03-02 17:59:00,
2014-03-02 13:04:00,43.3,31.6,30.00,North,0,0.0,0.0,63,0.00,,,0.00,meteobridge,2014-03-02 18:04:00,
2014-03-02 13:09:00,43.3,31.6,29.99,North,0,2.2,2.2,63,0.00,,,0.00,meteobridge,2014-03-02 18:09:00,
2014-03-02 13:14:00,42.4,31.1,29.99,North,0,3.1,3.1,64,0.00,,,0.00,meteobridge,2014-03-02 18:14:00,
2014-03-02 13:19:00,43.2,31.5,29.99,North,0,3.1,3.1,63,0.00,,,0.00,meteobridge,2014-03-02 18:19:00,
2014-03-02 13:25:00,43.5,31.8,29.99,North,0,2.2,2.2,63,0.00,,,0.00,meteobridge,2014-03-02 18:25:00,
2014-03-02 13:30:00,42.4,30.7,29.99,North,0,3.1,3.1,63,0.00,,,0.00,meteobridge,2014-03-02 18:30:00,
2014-03-02 13:35:00,41.9,30.2,29.98,North,0,3.1,3.1,63,0.00,,,0.00,meteobridge,2014-03-02 18:35:00,
2014-03-02 13:40:00,41.4,29.7,29.98,North,0,3.1,3.1,63,0.00,,,0.00,meteobridge,2014-03-02 18:40:00,
2014-03-02 13:45:00,41.0,29.3,29.98,North,0,3.8,3.8,63,0.00,,,0.00,meteobridge,2014-03-02 18:45:00,
2014-03-02 13:50:00,40.5,29.3,29.98,North,0,0.0,3.1,64,0.00,,,0.00,meteobridge,2014-03-02 18:50:00,
2014-03-02 13:56:00,39.9,28.8,29.98,North,0,0.0,4.5,64,0.00,,,0.00,meteobridge,2014-03-02 18:56:00,
2014-03-02 14:01:00,39.9,28.8,29.98,North,0,1.6,3.8,64,0.00,,,0.00,meteobridge,2014-03-02 19:01:00,
2014-03-02 14:06:00,39.9,28.8,29.98,North,0,2.2,3.1,64,0.00,,,0.00,meteobridge,2014-03-02 19:06:00,
2014-03-02 14:11:00,39.6,28.4,29.98,NW,315,1.6,2.2,64,0.00,,,0.00,meteobridge,2014-03-02 19:11:00,
2014-03-02 14:16:00,39.4,28.2,29.98,North,0,2.2,2.2,64,0.00,,,0.00,meteobridge,2014-03-02 19:16:00,
2014-03-02 14:21:00,39.0,28.2,29.98,North,0,1.6,3.8,65,0.00,,,0.00,meteobridge,2014-03-02 19:21:00,
2014-03-02 14:27:00,39.0,28.2,29.98,North,0,3.1,3.1,65,0.00,,,0.00,meteobridge,2014-03-02 19:27:00,
2014-03-02 14:32:00,38.8,28.0,29.99,North,0,0.0,0.0,65,0.00,,,0.00,meteobridge,2014-03-02 19:32:00,
2014-03-02 14:37:00,39.0,28.6,29.99,North,0,0.0,0.0,66,0.00,,,0.00,meteobridge,2014-03-02 19:37:00,
2014-03-02 14:42:00,38.7,28.6,29.99,North,0,0.0,1.6,67,0.00,,,0.00,meteobridge,2014-03-02 19:42:00,
2014-03-02 14:47:00,38.3,28.8,30.00,North,0,1.6,1.6,68,0.00,,,0.00,meteobridge,2014-03-02 19:47:00,
2014-03-02 14:52:00,38.1,28.6,30.00,North,0,0.0,1.6,68,0.00,,,0.00,meteobridge,2014-03-02 19:52:00,
2014-03-02 14:58:00,37.9,28.4,30.00,North,0,2.2,2.2,68,0.00,,,0.00,meteobridge,2014-03-02 19:58:00,
2014-03-02 15:03:00,37.6,28.4,29.99,North,0,1.6,2.2,69,0.00,,,0.00,meteobridge,2014-03-02 20:03:00,
2014-03-02 15:08:00,37.4,28.2,29.99,North,0,2.2,3.1,69,0.00,,,0.00,meteobridge,2014-03-02 20:08:00,
2014-03-02 15:13:00,37.0,26.4,29.99,North,0,0.7,0.7,65,0.00,,,0.00,meteobridge,2014-03-02 20:13:00,
2014-03-02 15:18:00,36.5,26.6,30.00,North,0,2.2,3.1,67,0.00,,,0.00,meteobridge,2014-03-02 20:18:00,
2014-03-02 15:23:00,36.3,26.8,30.00,North,0,1.6,1.6,68,0.00,,,0.00,meteobridge,2014-03-02 20:23:00,
2014-03-02 15:29:00,36.1,26.6,30.00,North,0,1.6,3.1,68,0.00,,,0.00,meteobridge,2014-03-02 20:29:00,
2014-03-02 15:34:00,36.3,27.1,30.00,North,0,0.0,1.6,69,0.00,,,0.00,meteobridge,2014-03-02 20:34:00,
2014-03-02 15:39:00,36.5,27.7,30.00,North,0,0.0,0.0,70,0.00,,,0.00,meteobridge,2014-03-02 20:39:00,
2014-03-02 15:44:00,36.9,28.0,30.00,North,0,0.7,0.7,70,0.00,,,0.00,meteobridge,2014-03-02 20:44:00,
2014-03-02 15:49:00,36.9,27.7,30.00,North,0,1.6,2.2,69,0.00,,,0.00,meteobridge,2014-03-02 20:49:00,
2014-03-02 15:54:00,36.7,27.1,30.00,North,0,2.2,2.2,68,0.00,,,0.00,meteobridge,2014-03-02 20:54:00,
2014-03-02 15:59:00,37.0,27.9,30.00,North,0,0.0,0.0,69,0.00,,,0.00,meteobridge,2014-03-02 20:59:00,
2014-03-02 16:05:00,36.9,27.3,30.01,North,0,0.0,0.0,68,0.00,,,0.00,meteobridge,2014-03-02 21:05:00,
2014-03-02 16:10:00,37.2,28.0,30.00,North,0,0.0,0.0,69,0.00,,,0.00,meteobridge,2014-03-02 21:10:00,
2014-03-02 16:15:00,37.0,27.5,30.00,North,0,0.0,0.0,68,0.00,,,0.00,meteobridge,2014-03-02 21:15:00,
2014-03-02 16:20:00,37.0,27.5,30.00,North,0,0.0,0.0,68,0.00,,,0.00,meteobridge,2014-03-02 21:20:00,
2014-03-02 16:25:00,37.0,27.5,30.00,North,0,0.0,0.0,68,0.00,,,0.00,meteobridge,2014-03-02 21:25:00,
2014-03-02 16:30:00,37.0,27.5,30.01,North,0,0.0,0.0,68,0.00,,,0.00,meteobridge,2014-03-02 21:30:00,
2014-03-02 16:36:00,37.2,27.7,30.01,North,0,0.0,0.0,68,0.00,,,0.00,meteobridge,2014-03-02 21:36:00,
2014-03-02 16:41:00,37.0,27.5,30.01,North,0,0.0,0.0,68,0.00,,,0.00,meteobridge,2014-03-02 21:41:00,
2014-03-02 16:46:00,37.0,27.5,30.01,North,0,0.0,0.0,68,0.00,,,0.00,meteobridge,2014-03-02 21:46:00,
2014-03-02 16:51:00,36.9,27.0,30.01,North,0,0.0,0.0,67,0.00,,,0.00,meteobridge,2014-03-02 21:51:00,
2014-03-02 16:56:00,36.7,26.8,30.02,North,0,0.0,0.0,67,0.00,,,0.00,meteobridge,2014-03-02 21:56:00,
2014-03-02 17:01:00,36.9,27.0,30.02,North,0,0.0,0.0,67,0.00,,,0.00,meteobridge,2014-03-02 22:01:00,
2014-03-02 17:07:00,36.7,26.8,30.02,North,0,0.0,0.0,67,0.00,,,0.00,meteobridge,2014-03-02 22:07:00,
2014-03-02 17:12:00,36.7,26.8,30.02,North,0,0.0,0.0,67,0.00,,,0.00,meteobridge,2014-03-02 22:12:00,
2014-03-02 17:17:00,36.7,26.4,30.02,North,0,0.0,0.0,66,0.00,,,0.00,meteobridge,2014-03-02 22:17:00,
2014-03-02 17:22:00,36.9,26.6,30.02,North,0,0.0,0.0,66,0.00,,,0.00,meteobridge,2014-03-02 22:22:00,
2014-03-02 17:27:00,36.7,26.4,30.02,North,0,0.0,0.0,66,0.00,,,0.00,meteobridge,2014-03-02 22:27:00,
2014-03-02 17:32:00,36.7,26.4,30.02,North,0,0.0,0.0,66,0.00,,,0.00,meteobridge,2014-03-02 22:32:00,
2014-03-02 17:38:00,36.3,26.1,30.02,North,0,0.0,0.0,66,0.00,,,0.00,meteobridge,2014-03-02 22:38:00,
2014-03-02 17:43:00,36.3,26.1,30.02,North,0,0.0,0.0,66,0.00,,,0.00,meteobridge,2014-03-02 22:43:00,
2014-03-02 17:48:00,36.3,26.1,30.02,North,0,0.0,0.0,66,0.00,,,0.00,meteobridge,2014-03-02 22:48:00,
2014-03-02 17:53:00,36.1,26.2,30.02,North,0,0.0,0.0,67,0.00,,,0.00,meteobridge,2014-03-02 22:53:00,
2014-03-02 17:58:00,36.1,26.2,30.03,SE,135,0.0,0.0,67,0.00,,,0.00,meteobridge,2014-03-02 22:58:00,
2014-03-02 18:03:00,36.1,26.2,30.03,SE,135,0.0,0.0,67,0.00,,,0.00,meteobridge,2014-03-02 23:03:00,
2014-03-02 18:09:00,36.0,26.4,30.03,South,180,0.0,0.0,68,0.00,,,0.00,meteobridge,2014-03-02 23:09:00,
2014-03-02 18:14:00,36.0,26.4,30.03,South,180,0.0,0.0,68,0.00,,,0.00,meteobridge,2014-03-02 23:14:00,
2014-03-02 18:19:00,36.1,26.6,30.03,North,0,0.0,0.0,68,0.00,,,0.00,meteobridge,2014-03-02 23:19:00,
2014-03-02 18:24:00,36.1,26.6,30.04,North,0,0.0,0.0,68,0.00,,,0.00,meteobridge,2014-03-02 23:24:00,
2014-03-02 18:29:00,36.1,26.6,30.04,North,0,0.0,0.0,68,0.00,,,0.00,meteobridge,2014-03-02 23:29:00,
2014-03-02 18:34:00,36.0,26.1,30.03,North,0,0.0,0.0,67,0.00,,,0.00,meteobridge,2014-03-02 23:34:00,
2014-03-02 18:40:00,36.0,26.1,30.03,North,0,0.0,0.0,67,0.00,,,0.00,meteobridge,2014-03-02 23:40:00,
2014-03-02 18:45:00,36.1,26.2,30.03,North,0,0.0,0.0,67,0.00,,,0.00,meteobridge,2014-03-02 23:45:00,
2014-03-02 18:50:00,36.1,26.2,30.03,North,0,0.0,0.0,67,0.00,,,0.00,meteobridge,2014-03-02 23:50:00,
2014-03-02 18:55:00,36.0,25.7,30.03,North,0,0.0,0.0,66,0.00,,,0.00,meteobridge,2014-03-02 23:55:00,
2014-03-02 19:00:00,36.0,25.7,30.02,North,0,0.0,0.0,66,0.00,,,0.00,meteobridge,2014-03-03 00:00:00,
2014-03-02 19:05:00,35.8,25.5,30.02,North,0,0.0,0.0,66,0.00,,,0.00,meteobridge,2014-03-03 00:05:00,
2014-03-02 19:11:00,35.6,25.7,30.02,North,0,0.0,0.0,67,0.00,,,0.00,meteobridge,2014-03-03 00:11:00,
2014-03-02 19:16:00,35.6,25.3,30.02,North,0,0.0,0.0,66,0.00,,,0.00,meteobridge,2014-03-03 00:16:00,
2014-03-02 19:21:00,35.6,25.7,30.02,North,0,0.0,0.0,67,0.00,,,0.00,meteobridge,2014-03-03 00:21:00,
2014-03-02 19:26:00,35.6,25.7,30.01,North,0,0.0,0.0,67,0.00,,,0.00,meteobridge,2014-03-03 00:26:00,
2014-03-02 19:31:00,35.6,25.7,30.02,North,0,0.0,0.0,67,0.00,,,0.00,meteobridge,2014-03-03 00:31:00,
2014-03-02 19:36:00,35.6,25.3,30.02,North,0,0.0,0.0,66,0.00,,,0.00,meteobridge,2014-03-03 00:36:00,
2014-03-02 19:42:00,35.6,25.7,30.02,North,0,0.0,0.0,67,0.00,,,0.00,meteobridge,2014-03-03 00:42:00,
2014-03-02 19:47:00,35.4,25.9,30.02,North,0,0.0,0.0,68,0.00,,,0.00,meteobridge,2014-03-03 00:47:00,
2014-03-02 19:52:00,35.6,25.3,30.02,North,0,0.0,0.0,66,0.00,,,0.00,meteobridge,2014-03-03 00:52:00,
2014-03-02 19:57:00,35.6,25.3,30.02,North,0,0.0,0.0,66,0.00,,,0.00,meteobridge,2014-03-03 00:57:00,
2014-03-02 20:02:00,35.6,25.3,30.02,North,0,0.0,0.0,66,0.00,,,0.00,meteobridge,2014-03-03 01:02:00,
2014-03-02 20:07:00,35.6,25.3,30.02,North,0,0.0,0.0,66,0.00,,,0.00,meteobridge,2014-03-03 01:07:00,
2014-03-02 20:13:00,35.6,25.3,30.01,North,0,0.0,0.0,66,0.00,,,0.00,meteobridge,2014-03-03 01:13:00,
2014-03-02 20:18:00,35.6,25.3,30.01,North,0,0.0,0.0,66,0.00,,,0.00,meteobridge,2014-03-03 01:18:00,
2014-03-02 20:23:00,35.4,25.5,30.01,North,0,0.0,0.0,67,0.00,,,0.00,meteobridge,2014-03-03 01:23:00,
2014-03-02 20:28:00,35.4,25.5,30.01,North,0,0.0,0.0,67,0.00,,,0.00,meteobridge,2014-03-03 01:28:00,
2014-03-02 20:33:00,35.4,25.5,30.01,North,0,0.0,0.0,67,0.00,,,0.00,meteobridge,2014-03-03 01:33:00,
2014-03-02 20:38:00,35.4,25.2,30.01,North,0,0.0,0.0,66,0.00,,,0.00,meteobridge,2014-03-03 01:38:00,
2014-03-02 20:44:00,35.4,25.2,30.01,North,0,0.0,0.0,66,0.00,,,0.00,meteobridge,2014-03-03 01:44:00,
2014-03-02 20:49:00,35.6,25.0,30.02,North,0,0.0,0.0,65,0.00,,,0.00,meteobridge,2014-03-03 01:49:00,
2014-03-02 20:54:00,35.4,25.2,30.02,North,0,0.0,0.0,66,0.00,,,0.00,meteobridge,2014-03-03 01:54:00,
2014-03-02 20:59:00,35.4,25.2,30.01,North,0,0.0,0.0,66,0.00,,,0.00,meteobridge,2014-03-03 01:59:00,
2014-03-02 21:04:00,35.4,24.8,30.01,North,0,0.0,0.0,65,0.00,,,0.00,meteobridge,2014-03-03 02:04:00,
2014-03-02 21:09:00,35.2,24.6,30.01,North,0,0.7,0.7,65,0.00,,,0.00,meteobridge,2014-03-03 02:09:00,
2014-03-02 21:15:00,35.2,24.6,30.01,North,0,0.0,0.0,65,0.00,,,0.00,meteobridge,2014-03-03 02:15:00,
2014-03-02 21:20:00,35.2,24.6,30.01,North,0,0.0,0.0,65,0.00,,,0.00,meteobridge,2014-03-03 02:20:00,
2014-03-02 21:25:00,35.2,24.6,30.01,North,0,0.0,0.0,65,0.00,,,0.00,meteobridge,2014-03-03 02:25:00,
2014-03-02 21:30:00,35.2,24.6,30.02,North,0,0.0,0.0,65,0.00,,,0.00,meteobridge,2014-03-03 02:30:00,
2014-03-02 21:35:00,35.1,24.4,30.02,North,0,0.0,0.0,65,0.00,,,0.00,meteobridge,2014-03-03 02:35:00,
2014-03-02 21:41:00,35.1,24.4,30.01,North,0,0.0,0.0,65,0.00,,,0.00,meteobridge,2014-03-03 02:41:00,
2014-03-02 21:46:00,35.1,24.4,30.01,North,0,0.0,0.0,65,0.00,,,0.00,meteobridge,2014-03-03 02:46:00,
2014-03-02 21:51:00,35.1,24.4,30.01,North,0,0.0,0.0,65,0.00,,,0.00,meteobridge,2014-03-03 02:51:00,
2014-03-02 21:56:00,35.1,24.4,30.01,North,0,0.0,0.0,65,0.00,,,0.00,meteobridge,2014-03-03 02:56:00,
2014-03-02 22:01:00,35.1,24.4,30.01,North,0,0.0,0.0,65,0.00,,,0.00,meteobridge,2014-03-03 03:01:00,
2014-03-02 22:06:00,35.1,24.1,30.01,North,0,0.0,2.2,64,0.00,,,0.00,meteobridge,2014-03-03 03:06:00,
2014-03-02 22:12:00,35.1,24.1,30.01,North,0,0.0,0.0,64,0.00,,,0.00,meteobridge,2014-03-03 03:12:00,
2014-03-02 22:17:00,34.9,23.9,30.00,North,0,0.0,0.0,64,0.00,,,0.00,meteobridge,2014-03-03 03:17:00,
2014-03-02 22:22:00,34.9,23.9,30.00,North,0,0.0,0.0,64,0.00,,,0.00,meteobridge,2014-03-03 03:22:00,
2014-03-02 22:27:00,34.9,23.9,30.00,North,0,0.0,0.0,64,0.00,,,0.00,meteobridge,2014-03-03 03:27:00,
2014-03-02 22:32:00,34.7,23.7,30.00,North,0,0.0,0.7,64,0.00,,,0.00,meteobridge,2014-03-03 03:32:00,
2014-03-02 22:37:00,34.7,23.7,30.00,North,0,2.2,2.2,64,0.00,,,0.00,meteobridge,2014-03-03 03:37:00,
2014-03-02 22:43:00,34.5,23.5,30.00,North,0,0.7,1.6,64,0.00,,,0.00,meteobridge,2014-03-03 03:43:00,
2014-03-02 22:48:00,34.5,23.9,30.00,North,0,0.7,1.6,65,0.00,,,0.00,meteobridge,2014-03-03 03:48:00,
2014-03-02 22:53:00,34.3,23.7,30.00,West,270,2.2,2.2,65,0.00,,,0.00,meteobridge,2014-03-03 03:53:00,
2014-03-02 22:58:00,34.2,23.5,30.01,North,0,3.1,3.1,65,0.00,,,0.00,meteobridge,2014-03-03 03:58:00,
2014-03-02 23:03:00,34.2,24.1,30.01,North,0,3.8,3.8,66,0.00,,,0.00,meteobridge,2014-03-03 04:03:00,
2014-03-02 23:08:00,33.8,23.0,30.01,North,0,3.1,4.5,64,0.00,,,0.00,meteobridge,2014-03-03 04:08:00,
2014-03-02 23:14:00,33.8,23.0,30.00,NW,315,1.6,3.1,64,0.00,,,0.00,meteobridge,2014-03-03 04:14:00,
2014-03-02 23:19:00,33.8,22.5,30.01,NE,45,3.8,3.8,63,0.00,,,0.00,meteobridge,2014-03-03 04:19:00,
2014-03-02 23:24:00,33.6,22.8,30.00,North,0,0.0,3.1,64,0.00,,,0.00,meteobridge,2014-03-03 04:24:00,
2014-03-02 23:29:00,33.4,22.6,30.00,North,0,0.7,2.2,64,0.00,,,0.00,meteobridge,2014-03-03 04:29:00,
2014-03-02 23:34:00,33.4,22.6,30.01,NE,45,3.1,3.1,64,0.00,,,0.00,meteobridge,2014-03-03 04:34:00,
2014-03-02 23:39:00,33.3,22.5,30.00,North,0,1.6,3.8,64,0.00,,,0.00,meteobridge,2014-03-03 04:39:00,
2014-03-02 23:45:00,33.3,22.5,30.00,North,0,1.6,3.8,64,0.00,,,0.00,meteobridge,2014-03-03 04:45:00,
2014-03-02 23:50:00,33.3,22.8,30.00,North,0,3.1,3.1,65,0.00,,,0.00,meteobridge,2014-03-03 04:50:00,
2014-03-02 23:55:00,33.1,22.6,30.01,North,0,3.1,3.1,65,0.00,,,0.00,meteobridge,2014-03-03 04:55:00,